Hourly Weather Bolshoe Berdyaevo

Today, 20 June, Sunday

Time Temperature Precipitation Wind Pressure Humidity
00:00 +18°C° 0 mm 1 mps 745 mmHg 89%
01:00 +18°C° 0 mm 1 mps 745 mmHg 90%
02:00 +18°C° 0 mm 1 mps 745 mmHg 92%
03:00 +18°C° 0 mm 1 mps 745 mmHg 90%
04:00 +19°C° 0 mm 1 mps 745 mmHg 89%
05:00 +20°C° 0 mm 1 mps 745 mmHg 87%
06:00 +22°C° 0 mm 1 mps 745 mmHg 81%
07:00 +24°C° 0 mm 1 mps 745 mmHg 75%
08:00 +26°C° 0 mm 1 mps 745 mmHg 70%
09:00 +27°C° 0 mm 2 mps 745 mmHg 65%
10:00 +28°C° 0 mm 2 mps 745 mmHg 60%
11:00 +29°C° 0 mm 2 mps 745 mmHg 55%
12:00 +29°C° 0 mm 2 mps 745 mmHg 52%
13:00 +30°C° 0 mm 2 mps 745 mmHg 50%
14:00 +30°C° 0 mm 2 mps 744 mmHg 47%
15:00 +30°C° 0 mm 2 mps 744 mmHg 50%
16:00 +30°C° 0 mm 2 mps 744 mmHg 53%
17:00 +29°C° 0 mm 2 mps 744 mmHg 56%
18:00 +27°C° 0 mm 2 mps 744 mmHg 64%
19:00 +26°C° 0 mm 2 mps 744 mmHg 71%
20:00 +24°C° 0 mm 2 mps 743 mmHg 79%
21:00 +23°C° 0 mm 2 mps 744 mmHg 81%
22:00 +21°C° 0 mm 2 mps 744 mmHg 84%
23:00 +19°C° 0 mm 2 mps 744 mmHg 86%

Tomorrow, 21 June, Monday

Time Temperature Precipitation Wind Pressure Humidity
00:00 +19°C° 0 mm 2 mps 744 mmHg 88%
01:00 +19°C° 0 mm 1 mps 744 mmHg 90%
02:00 +19°C° 0 mm 1 mps 744 mmHg 91%
03:00 +19°C° 0 mm 1 mps 744 mmHg 90%
04:00 +19°C° 0 mm 1 mps 744 mmHg 88%
05:00 +20°C° 0 mm 1 mps 744 mmHg 87%
06:00 +21°C° 0 mm 1 mps 744 mmHg 80%
07:00 +23°C° 0 mm 2 mps 744 mmHg 73%
08:00 +24°C° 0 mm 2 mps 744 mmHg 66%
09:00 +26°C° 0 mm 2 mps 744 mmHg 60%
10:00 +27°C° 0 mm 3 mps 744 mmHg 54%
11:00 +28°C° 0 mm 3 mps 744 mmHg 48%
12:00 +29°C° 0 mm 3 mps 744 mmHg 45%
13:00 +29°C° 0 mm 3 mps 744 mmHg 43%
14:00 +30°C° 0 mm 3 mps 744 mmHg 41%
15:00 +30°C° 0 mm 2 mps 743 mmHg 45%
16:00 +29°C° 0 mm 2 mps 743 mmHg 49%
17:00 +29°C° 0 mm 2 mps 743 mmHg 53%
18:00 +27°C° 0 mm 2 mps 743 mmHg 62%
19:00 +25°C° 0 mm 2 mps 743 mmHg 71%
20:00 +23°C° 0 mm 2 mps 742 mmHg 80%
21:00 +21°C° 0 mm 2 mps 743 mmHg 84%
22:00 +20°C° 0 mm 2 mps 743 mmHg 88%
23:00 +20°C° 0 mm 2 mps 743 mmHg 92%

Day after tomorrow, 22 June, Tuesday

Time Temperature Precipitation Wind Pressure Humidity
00:00 +19°C° 0 mm 2 mps 743 mmHg 93%
01:00 +19°C° 0 mm 2 mps 743 mmHg 95%
02:00 +19°C° 0 mm 2 mps 743 mmHg 96%
03:00 +19°C° 0 mm 2 mps 743 mmHg 95%
04:00 +19°C° 0 mm 2 mps 743 mmHg 94%
05:00 +20°C° 0 mm 2 mps 743 mmHg 92%
06:00 +21°C° 0 mm 2 mps 743 mmHg 83%
07:00 +24°C° 0 mm 3 mps 743 mmHg 74%
08:00 +26°C° 0 mm 3 mps 743 mmHg 65%
09:00 +27°C° 0 mm 3 mps 743 mmHg 58%
10:00 +29°C° 0 mm 4 mps 743 mmHg 51%
11:00 +32°C° 0 mm 4 mps 743 mmHg 44%
12:00 +32°C° 0 mm 4 mps 743 mmHg 42%
13:00 +33°C° 0 mm 4 mps 743 mmHg 40%
14:00 +34°C° 0 mm 3 mps 743 mmHg 37%
15:00 +33°C° 0 mm 3 mps 743 mmHg 41%
16:00 +33°C° 0 mm 3 mps 743 mmHg 44%
17:00 +33°C° 0 mm 3 mps 743 mmHg 48%
18:00 +29°C° 0 mm 3 mps 743 mmHg 58%
19:00 +27°C° 0 mm 3 mps 742 mmHg 68%
20:00 +25°C° 0 mm 2 mps 742 mmHg 78%
21:00 +24°C° 0 mm 2 mps 743 mmHg 83%
22:00 +23°C° 0 mm 2 mps 743 mmHg 87%
23:00 +21°C° 0 mm 2 mps 743 mmHg 91%

23 June, Wednesday

Time Temperature Precipitation Wind Pressure Humidity
00:00 +20°C° 0 mm 2 mps 743 mmHg 93%
01:00 +20°C° 0 mm 2 mps 743 mmHg 94%
02:00 +19°C° 0 mm 2 mps 743 mmHg 96%
03:00 +20°C° 0 mm 2 mps 743 mmHg 95%
04:00 +21°C° 0 mm 1 mps 744 mmHg 94%
05:00 +22°C° 0 mm 1 mps 744 mmHg 92%
06:00 +24°C° 0 mm 2 mps 744 mmHg 84%
07:00 +26°C° 0 mm 2 mps 744 mmHg 76%
08:00 +28°C° 0 mm 2 mps 744 mmHg 69%
09:00 +29°C° 0 mm 2 mps 744 mmHg 62%
10:00 +30°C° 0 mm 3 mps 744 mmHg 55%
11:00 +33°C° 0 mm 3 mps 744 mmHg 48%
12:00 +33°C° 0 mm 3 mps 744 mmHg 46%
13:00 +34°C° 0 mm 3 mps 744 mmHg 43%
14:00 +35°C° 0 mm 3 mps 744 mmHg 40%
15:00 +34°C° 0 mm 3 mps 744 mmHg 43%
16:00 +34°C° 0 mm 2 mps 744 mmHg 46%
17:00 +32°C° 0 mm 2 mps 744 mmHg 48%
18:00 +30°C° 0 mm 2 mps 744 mmHg 58%
19:00 +28°C° 0 mm 2 mps 743 mmHg 67%
20:00 +25°C° 0 mm 2 mps 743 mmHg 76%
21:00 +24°C° 0 mm 2 mps 743 mmHg 79%
22:00 +23°C° 0 mm 2 mps 743 mmHg 82%
23:00 +21°C° 0 mm 2 mps 744 mmHg 85%

24 June, Thursday

Time Temperature Precipitation Wind Pressure Humidity
00:00 +21°C° 0 mm 2 mps 744 mmHg 87%
01:00 +20°C° 0 mm 2 mps 744 mmHg 88%
02:00 +20°C° 0 mm 2 mps 744 mmHg 90%
03:00 +20°C° 0 mm 2 mps 744 mmHg 88%
04:00 +20°C° 0 mm 2 mps 744 mmHg 87%
05:00 +22°C° 0 mm 1 mps 744 mmHg 86%
06:00 +24°C° 0 mm 2 mps 744 mmHg 78%
07:00 +26°C° 0 mm 2 mps 744 mmHg 71%
08:00 +28°C° 0 mm 3 mps 744 mmHg 64%
09:00 +29°C° 0 mm 3 mps 743 mmHg 57%
10:00 +31°C° 0 mm 2 mps 743 mmHg 50%
11:00 +32°C° 0 mm 2 mps 743 mmHg 44%
12:00 +34°C° 0 mm 3 mps 743 mmHg 42%
13:00 +34°C° 0 mm 3 mps 743 mmHg 40%
14:00 +35°C° 0 mm 3 mps 742 mmHg 38%
15:00 +30°C° 2 mm 4 mps 742 mmHg 53%
16:00 +26°C° 2 mm 4 mps 742 mmHg 68%
17:00 +21°C° 2 mm 5 mps 742 mmHg 83%
18:00 +21°C° 1.3 mm 4 mps 741 mmHg 83%
19:00 +20°C° 1.3 mm 3 mps 741 mmHg 83%
20:00 +21°C° 1.3 mm 1 mps 741 mmHg 83%
21:00 +19°C° 0 mm 2 mps 741 mmHg 85%
22:00 +19°C° 0 mm 2 mps 741 mmHg 87%
23:00 +18°C° 0 mm 2 mps 741 mmHg 89%

25 June, Friday

Time Temperature Precipitation Wind Pressure Humidity
00:00 +18°C° 0 mm 2 mps 741 mmHg 89%
01:00 +18°C° 0 mm 2 mps 740 mmHg 90%
02:00 +18°C° 0 mm 2 mps 740 mmHg 90%
03:00 +19°C° 0 mm 2 mps 740 mmHg 90%
04:00 +19°C° 0 mm 2 mps 740 mmHg 91%
05:00 +21°C° 0 mm 1 mps 740 mmHg 91%
06:00 +23°C° 0 mm 2 mps 740 mmHg 84%
07:00 +25°C° 0 mm 2 mps 740 mmHg 78%
08:00 +27°C° 0 mm 2 mps 740 mmHg 71%
09:00 +29°C° 0 mm 2 mps 740 mmHg 64%
10:00 +30°C° 0 mm 3 mps 740 mmHg 58%
11:00 +33°C° 0 mm 3 mps 740 mmHg 51%
12:00 +33°C° 0 mm 3 mps 740 mmHg 49%
13:00 +34°C° 0 mm 3 mps 740 mmHg 46%
14:00 +34°C° 0 mm 4 mps 739 mmHg 44%
15:00 +34°C° 0 mm 4 mps 739 mmHg 47%
16:00 +33°C° 0 mm 3 mps 738 mmHg 49%
17:00 +33°C° 0 mm 3 mps 738 mmHg 52%
18:00 +29°C° 0 mm 3 mps 738 mmHg 61%
19:00 +27°C° 0 mm 2 mps 738 mmHg 70%
20:00 +25°C° 0 mm 2 mps 738 mmHg 79%
21:00 +24°C° 0 mm 2 mps 738 mmHg 81%
22:00 +23°C° 0 mm 2 mps 738 mmHg 83%
23:00 +23°C° 0 mm 2 mps 738 mmHg 85%
Show more